Location: Del Amo
(33.8464°N, 118.2104°W)
Time: 05:13:20
(UTC+00:00)

Vanguard 2 Rocket - Pass Details

Date: 19 September 2024
Orbit: 553 x 3299 km, 32.9° (Epoch: 05 October)

Event Time Altitude Azimuth Distance (km) Brightness Sun altitude
Rises 15:42:26 0° 280° (W) 6,497 10.7 24.4°
Reaches altitude 10° 15:47:29 10° 269° (W) 5,794 10.5 25.4°
Maximum altitude 16:01:28 27° 221° (SW) 4,929 10.6 28.2°
Drops below altitude 10° 16:16:09 10° 172° (S) 6,001 11.5 31.0°
Sets 16:21:41 0° 161° (SSE) 6,751 11.9 32.1°
